Date String (YYYY-MM-DD hh:mm:ss) UTC,Instrument flags,Ambient pressure (hPa),Sample flow (lpm),Bypass flow (lpm),Sample temperature (°C),Ambient temperature (°C),ASC tube jacket temperature (°C),LED temperature (°C),Box temperature (°C),Sample RH (%),Span deviation,Mass concentration (μg/m³),Mass concentration (μg/m³),Mass concentration (μg/m³)
DateTimeUTC,F1_M11,P_M11,Q1_M11,Q2_M11,T1_M11,T2_M11,T3_M11,T4_M11,T5_M11,U1_M11,ZSPAN_M11,X2_M11,X0_M11,X1_M11
2021-11-14 17:00:00,,0827.4,5.00,0.00,25.0,24.1,00.0,33.8,26.8,13.9,0000.0,0001.39,0008.88,0000.64
2021-11-14 17:01:00,,0827.5,4.99,0.00,25.0,24.1,00.0,33.9,26.8,13.9,0000.0,0001.41,0009.35,0000.64
2021-11-14 17:02:00,,0827.5,5.01,0.00,25.0,24.2,00.0,33.9,26.8,14.0,0000.0,0001.36,0009.18,0000.64
2021-11-14 17:03:00,,0827.4,5.00,0.00,25.0,24.2,00.0,33.9,26.8,14.0,0000.0,0001.36,0009.52,0000.64
2021-11-14 17:04:00,,0827.2,5.00,0.00,25.0,24.2,00.0,33.9,26.9,14.1,0000.0,0001.37,0009.41,0000.64
2021-11-14 17:05:00,,0827.1,5.00,0.00,25.0,24.2,00.0,33.9,26.9,14.1,0000.0,0001.30,0009.04,0000.64
2021-11-14 17:06:00,,0827.1,5.02,0.00,25.0,24.2,00.0,33.9,26.9,14.1,0000.0,0001.30,0008.88,0000.63
2021-11-14 17:07:00,,0827.2,5.00,0.00,25.0,24.3,00.0,33.9,26.9,14.1,0000.0,0001.33,0009.36,0000.63
2021-11-14 17:08:00,,0827.1,5.01,0.00,25.0,24.2,00.0,34.0,26.8,14.1,0000.0,0001.36,0009.28,0000.63
2021-11-14 17:09:00,,0827.0,4.99,0.00,25.0,24.2,00.0,34.0,26.9,14.1,0000.0,0001.31,0008.57,0000.63
2021-11-14 17:10:00,,0827.2,4.99,0.00,25.0,24.2,00.0,34.0,26.9,14.2,0000.0,0001.31,0007.84,0000.65
2021-11-14 17:11:00,,0827.2,5.00,0.00,25.0,24.3,00.0,34.0,26.9,14.2,0000.0,0001.34,0007.57,0000.66
2021-11-14 17:12:00,,0827.2,5.01,0.00,25.1,24.3,00.0,34.0,26.9,14.2,0000.0,0001.35,0007.38,0000.66
2021-11-14 17:13:00,,0827.3,4.99,0.00,25.1,24.3,00.0,34.0,26.9,14.2,0000.0,0001.36,0006.93,0000.67
2021-11-14 17:14:00,,0827.2,5.01,0.00,25.1,24.3,00.0,34.0,26.9,14.3,0000.0,0001.34,0006.30,0000.67
2021-11-14 17:15:00,,0827.2,4.99,0.00,25.1,24.3,00.0,34.0,26.9,14.2,0000.0,0001.32,0005.98,0000.66
2021-11-14 17:16:00,,0827.3,5.00,0.00,25.1,24.3,00.0,34.0,26.9,14.3,0000.0,0001.32,0004.64,0000.66
2021-11-14 17:17:00,,0827.3,5.01,0.00,25.1,24.3,00.0,34.0,26.9,14.4,0000.0,0001.33,0004.70,0000.67
2021-11-14 17:18:00,,0827.2,5.01,0.00,25.1,24.3,00.0,34.0,26.9,14.3,0000.0,0001.33,0004.28,0000.67
2021-11-14 17:19:00,,0827.2,5.00,0.00,25.1,24.3,00.0,34.1,26.9,14.3,0000.0,0001.29,0004.22,0000.67
2021-11-14 17:20:00,,0827.2,4.99,0.00,25.1,24.3,00.0,34.1,26.9,14.3,0000.0,0001.29,0004.21,0000.67
2021-11-14 17:21:00,,0827.2,5.00,0.00,25.1,24.3,00.0,34.1,27.0,14.3,0000.0,0001.28,0004.26,0000.65
2021-11-14 17:22:00,,0827.2,5.00,0.00,25.1,24.3,00.0,34.1,27.0,14.4,0000.0,0001.25,0004.17,0000.64
2021-11-14 17:23:00,,0827.2,5.02,0.00,25.1,24.3,00.0,34.1,26.9,14.4,0000.0,0001.26,0004.23,0000.64
2021-11-14 17:24:00,,0827.2,5.00,0.00,25.1,24.3,00.0,34.1,26.9,14.4,0000.0,0001.27,0004.99,0000.63
2021-11-14 17:25:00,,0827.2,4.99,0.00,25.1,24.3,00.0,34.1,26.9,14.4,0000.0,0001.24,0004.91,0000.62
2021-11-14 17:26:00,,0827.1,5.00,0.00,25.1,24.4,00.0,34.1,26.9,14.4,0000.0,0001.24,0004.92,0000.61
2021-11-14 17:27:00,,0827.1,5.02,0.00,25.1,24.4,00.0,34.1,26.9,14.5,0000.0,0001.17,0004.69,0000.60
2021-11-14 17:28:00,,0827.1,5.00,0.00,25.1,24.4,00.0,34.1,27.0,14.5,0000.0,0001.14,0004.01,0000.60
2021-11-14 17:29:00,,0827.0,4.99,0.00,25.1,24.4,00.0,34.1,27.0,14.5,0000.0,0001.11,0003.50,0000.60
2021-11-14 17:30:00,,0827.1,5.00,0.00,25.2,24.4,00.0,34.1,27.0,14.4,0000.0,0001.06,0003.47,0000.60
2021-11-14 17:31:00,,0827.1,5.00,0.00,25.2,24.4,00.0,34.1,27.0,14.5,0000.0,0001.03,0003.39,0000.59
2021-11-14 17:32:00,,0827.0,4.99,0.00,25.2,24.4,00.0,34.2,27.0,14.5,0000.0,0001.00,0004.22,0000.59
2021-11-14 17:33:00,,0827.0,4.99,0.00,25.2,24.4,00.0,34.2,27.0,14.5,0000.0,0001.02,0004.19,0000.59
2021-11-14 17:34:00,,0826.9,5.00,0.00,25.2,24.4,00.0,34.2,27.0,14.5,0000.0,0000.99,0003.55,0000.59
2021-11-14 17:35:00,,0826.9,4.99,0.00,25.2,24.4,00.0,34.2,27.0,14.5,0000.0,0000.96,0002.87,0000.60
2021-11-14 17:36:00,,0826.8,5.01,0.00,25.2,24.4,00.0,34.2,27.1,14.6,0000.0,0000.97,0003.00,0000.60
2021-11-14 17:37:00,,0826.8,5.01,0.00,25.2,24.4,00.0,34.2,27.1,14.6,0000.0,0001.00,0003.43,0000.62
2021-11-14 17:38:00,,0827.0,4.99,0.00,25.2,24.5,00.0,34.2,27.1,14.6,0000.0,0001.07,0004.42,0000.64
2021-11-14 17:39:00,,0826.8,5.00,0.00,25.2,24.5,00.0,34.2,27.1,14.7,0000.0,0001.06,0005.02,0000.63
2021-11-14 17:40:00,,0826.8,5.01,0.00,25.3,24.5,00.0,34.2,27.1,14.7,0000.0,0001.05,0006.34,0000.63
2021-11-14 17:41:00,,0826.8,5.00,0.00,25.3,24.5,00.0,34.2,27.1,14.6,0000.0,0001.05,0007.14,0000.63
2021-11-14 17:42:00,,0826.6,5.01,0.00,25.3,24.5,00.0,34.2,27.1,14.6,0000.0,0001.05,0007.85,0000.63
2021-11-14 17:43:00,,0826.6,4.98,0.00,25.3,24.5,00.0,34.3,27.1,14.6,0000.0,0001.06,0007.57,0000.64
2021-11-14 17:44:00,,0826.7,5.01,0.00,25.3,24.5,00.0,34.3,27.1,14.6,0000.0,0001.06,0007.55,0000.66
2021-11-14 17:45:00,,0826.7,5.00,0.00,25.3,24.5,00.0,34.3,27.1,14.6,0000.0,0001.05,0007.59,0000.66
2021-11-14 17:46:00,,0826.6,4.99,0.00,25.3,24.5,00.0,34.3,27.1,14.6,0000.0,0001.10,0007.89,0000.66
2021-11-14 17:47:00,,0826.5,5.00,0.00,25.3,24.5,00.0,34.3,27.1,14.6,0000.0,0001.24,0008.31,0000.66
2021-11-14 17:48:00,,0826.7,4.99,0.00,25.3,24.5,00.0,34.3,27.1,14.6,0000.0,0001.27,0009.37,0000.66
2021-11-14 17:49:00,,0826.7,5.02,0.00,25.3,24.5,00.0,34.3,27.1,14.6,0000.0,0001.30,0009.36,0000.66
2021-11-14 17:50:00,,0826.6,5.00,0.00,25.3,24.5,00.0,34.3,27.1,14.6,0000.0,0001.38,0009.49,0000.67
2021-11-14 17:51:00,,0826.7,4.99,0.00,25.3,24.5,00.0,34.3,27.1,14.6,0000.0,0001.48,0009.56,0000.69
2021-11-14 17:52:00,,0826.8,4.99,0.00,25.3,24.5,00.0,34.3,27.1,14.7,0000.0,0001.61,0009.43,0000.70
2021-11-14 17:53:00,,0826.6,5.02,0.00,25.3,24.5,00.0,34.3,27.1,14.7,0000.0,0001.68,0009.16,0000.71
2021-11-14 17:54:00,,0826.6,5.00,0.00,25.3,24.5,00.0,34.3,27.1,14.6,0000.0,0001.80,0009.31,0000.72
2021-11-14 17:55:00,,0826.6,5.00,0.00,25.3,24.6,00.0,34.3,27.1,14.6,0000.0,0001.92,0010.31,0000.72
2021-11-14 17:56:00,,0826.5,4.99,0.00,25.3,24.6,00.0,34.4,27.2,14.6,0000.0,0001.96,0010.46,0000.73
2021-11-14 17:57:00,,0826.6,5.00,0.00,25.3,24.6,00.0,34.4,27.2,14.6,0000.0,0002.04,0010.74,0000.74
2021-11-14 17:58:00,,0826.5,5.00,0.00,25.3,24.6,00.0,34.4,27.2,14.6,0000.0,0002.09,0011.84,0000.75
2021-11-14 17:59:00,,0826.5,5.00,0.00,25.3,24.6,00.0,34.4,27.2,14.7,0000.0,0002.22,0011.80,0000.75
